Total_Precipitation_Accumulation
0.15 0.22 0.25 0.30 0.25 0.19 0.16 0.17 0.27 0.35 0.51 0.64 0.63 0.72 1.00 0.86 0.75 0.67 0.66 0.57 0.54 0.63 0.77 0.86 0.89 0.89 0.98 1.11 1.24 1.36 1.48 1.61 1.85 2.12 1.97 1.73 1.69 1.66 1.61 1.70 1.83 2.13 2.28 2.36
0.15 0.20 0.23 0.26 0.27 0.21 0.18 0.17 0.17 0.28 0.48 0.57 0.67 0.70 0.80 0.80 0.83 0.83 0.76 0.73 0.74 0.90 0.93 0.95 0.99 0.94 0.94 0.98 1.07 1.25 1.39 1.52 1.70 1.82 1.67 1.51 1.39 1.42 1.45 1.54 1.72 1.90 2.04 2.17
0.28 0.23 0.27 0.31 0.28 0.24 0.21 0.27 0.27 0.36 0.48 0.54 0.75 0.72 0.72 0.88 0.98 0.91 0.75 0.80 0.85 0.90 1.02 0.96 0.93 0.92 0.93 0.99 1.17 1.35 1.38 1.41 1.55 1.66 1.65 1.54 1.37 1.37 1.43 1.53 1.67 1.77 1.82 1.88
0.42 0.44 0.52 0.41 0.37 0.33 0.30 0.36 0.37 0.40 0.47 0.57 0.75 0.75 0.64 0.69 0.75 0.83 0.86 0.94 0.93 0.92 0.96 0.91 0.85 0.94 0.95 0.95 1.18 1.39 1.43 1.50 1.66 1.81 1.81 1.73 1.66 1.62 1.71 1.78 1.77 1.77 1.81 1.85
0.60 0.59 0.53 0.52 0.51 0.51 0.57 0.72 0.65 0.56 0.54 0.60 0.60 0.70 0.77 0.67 0.62 0.74 0.84 1.02 1.06 0.98 1.04 1.08 1.10 1.14 1.15 1.14 1.32 1.53 1.64 1.68 1.75 1.89 1.93 1.95 2.04 2.09 2.14 2.14 2.01 1.97 2.04 2.06
0.67 0.76 0.76 0.73 0.63 0.58 0.75 1.19 1.06 0.83 0.70 0.66 0.68 1.01 1.15 0.95 0.80 0.82 0.82 0.98 1.16 1.16 1.02 1.06 1.12 1.22 1.41 1.48 1.55 1.62 1.77 1.91 1.92 2.06 2.18 2.17 2.27 2.41 2.54 2.57 2.45 2.46 2.35 2.19
0.75 0.85 0.91 0.85 0.64 0.68 1.25 1.62 1.26 1.06 0.98 0.88 0.96 1.00 1.06 0.94 0.86 0.87 0.85 0.91 1.02 1.25 1.14 1.11 1.21 1.37 1.57 1.68 1.82 1.85 1.91 1.98 2.05 2.21 2.38 2.52 2.71 2.89 2.90 2.83 2.83 2.74 2.47 2.34
0.95 1.16 1.25 0.84 0.81 1.12 1.41 1.25 1.26 1.30 1.36 1.28 1.11 0.91 0.90 0.95 0.85 0.84 0.84 0.86 0.88 0.96 1.09 1.17 1.25 1.52 1.69 1.72 1.77 1.91 2.03 2.14 2.28 2.38 2.42 2.55 2.89 3.01 2.99 2.94 2.79 2.60 2.44 2.23
1.19 1.36 1.14 0.91 1.01 1.08 1.20 1.28 1.33 1.40 1.43 1.31 1.11 0.97 0.97 0.98 0.88 0.81 0.78 0.84 0.89 0.91 1.02 1.18 1.35 1.60 1.90 1.98 1.93 1.92 2.03 2.20 2.36 2.49 2.69 2.89 3.01 2.95 2.85 2.80 2.68 2.52 2.37 2.17
1.37 1.38 1.11 1.06 1.09 1.06 1.12 1.18 1.29 1.25 1.22 1.21 1.15 1.01 0.99 0.94 0.81 0.78 0.80 0.84 0.88 0.97 1.07 1.24 1.47 1.69 1.99 1.96 1.88 1.93 1.95 2.08 2.19 2.27 2.33 2.46 2.65 2.58 2.44 2.41 2.44 2.41 2.36 2.25
1.58 1.57 1.45 1.39 1.37 1.26 1.12 1.06 1.03 1.07 1.08 1.14 1.17 1.13 0.97 0.94 0.87 0.77 0.79 0.84 0.92 1.06 1.26 1.34 1.47 1.62 1.69 1.69 1.72 1.75 1.75 1.81 1.84 1.88 1.96 2.04 2.11 2.18 2.13 2.12 2.08 2.07 2.07 2.05
1.84 1.63 1.56 1.73 1.59 1.45 1.25 1.16 1.10 1.06 1.06 1.13 1.17 1.22 1.04 0.94 0.93 0.83 0.79 0.89 1.05 1.16 1.26 1.38 1.60 1.76 1.75 1.69 1.74 1.78 1.72 1.66 1.64 1.68 1.74 1.74 1.81 1.83 1.83 1.73 1.63 1.54 1.47 1.42
1.58 1.48 1.47 1.50 1.45 1.37 1.29 1.29 1.35 1.28 1.17 1.10 1.12 1.12 1.01 0.95 0.95 0.89 0.88 0.96 1.10 1.12 1.15 1.30 1.45 1.57 1.71 1.84 1.91 1.94 1.83 1.71 1.63 1.55 1.56 1.58 1.62 1.70 1.73 1.63 1.46 1.30 1.18 1.10
1.59 1.50 1.52 1.45 1.40 1.32 1.26 1.31 1.38 1.29 1.23 1.16 1.14 1.11 1.05 0.97 0.99 1.03 0.99 1.04 1.17 1.20 1.22 1.32 1.43 1.49 1.56 1.78 1.94 2.00 1.94 1.82 1.65 1.55 1.50 1.51 1.53 1.56 1.66 1.74 1.63 1.43 1.21 1.02
1.85 1.69 1.58 1.54 1.52 1.45 1.28 1.26 1.30 1.23 1.13 1.13 1.15 1.15 1.12 1.12 1.09 1.11 1.08 1.06 1.16 1.26 1.29 1.37 1.43 1.46 1.57 1.69 1.75 1.77 1.74 1.66 1.56 1.50 1.50 1.49 1.52 1.52 1.49 1.55 1.54 1.49 1.34 1.16
1.81 1.67 1.49 1.48 1.55 1.55 1.44 1.35 1.33 1.30 1.22 1.15 1.15 1.15 1.17 1.21 1.15 1.11 1.08 1.09 1.19 1.23 1.22 1.31 1.41 1.44 1.56 1.73 1.77 1.79 1.76 1.71 1.56 1.49 1.54 1.58 1.57 1.56 1.53 1.59 1.58 1.54 1.40 1.21
1.72 1.67 1.52 1.37 1.39 1.43 1.38 1.28 1.22 1.25 1.25 1.19 1.13 1.07 1.04 1.06 1.15 1.15 1.08 1.03 1.11 1.23 1.26 1.38 1.44 1.43 1.55 1.72 1.87 1.83 1.75 1.69 1.58 1.50 1.52 1.60 1.62 1.60 1.55 1.56 1.54 1.54 1.42 1.25
1.45 1.45 1.40 1.34 1.24 1.20 1.24 1.20 1.15 1.16 1.21 1.18 1.11 1.09 1.11 1.16 1.28 1.35 1.32 1.27 1.28 1.29 1.28 1.33 1.38 1.42 1.49 1.62 1.70 1.70 1.69 1.64 1.51 1.35 1.34 1.41 1.46 1.49 1.50 1.50 1.51 1.53 1.45 1.26
1.27 1.40 1.37 1.29 1.30 1.18 1.23 1.22 1.18 1.18 1.15 1.15 1.13 1.10 1.12 1.23 1.36 1.45 1.54 1.55 1.53 1.47 1.38 1.32 1.41 1.40 1.49 1.59 1.61 1.60 1.56 1.49 1.36 1.19 1.17 1.30 1.37 1.43 1.43 1.39 1.39 1.39 1.29 1.17
1.36 1.40 1.38 1.30 1.37 1.38 1.29 1.26 1.23 1.25 1.15 1.09 1.14 1.19 1.26 1.31 1.43 1.53 1.55 1.52 1.46 1.43 1.37 1.28 1.23 1.22 1.30 1.43 1.54 1.51 1.45 1.40 1.35 1.19 1.14 1.28 1.38 1.47 1.43 1.35 1.34 1.30 1.20 1.15
1.35 1.34 1.26 1.17 1.18 1.17 1.12 1.11 1.14 1.19 1.25 1.25 1.36 1.47 1.51 1.47 1.50 1.64 1.76 1.64 1.39 1.37 1.34 1.31 1.22 1.21 1.19 1.31 1.41 1.41 1.38 1.37 1.41 1.31 1.24 1.27 1.33 1.37 1.34 1.26 1.23 1.18 1.15 1.18
1.29 1.31 1.28 1.23 1.16 1.06 0.95 0.94 1.04 1.14 1.25 1.37 1.47 1.57 1.63 1.65 1.68 1.68 1.61 1.62 1.50 1.53 1.46 1.35 1.30 1.25 1.22 1.22 1.26 1.32 1.33 1.34 1.43 1.39 1.33 1.37 1.44 1.46 1.44 1.37 1.31 1.23 1.20 1.20
1.26 1.31 1.27 1.22 1.25 1.15 1.03 1.01 0.99 1.06 1.14 1.22 1.34 1.57 1.67 1.65 1.72 1.90 1.70 1.38 1.31 1.40 1.41 1.39 1.34 1.25 1.16 1.05 1.12 1.23 1.26 1.31 1.33 1.29 1.24 1.23 1.25 1.30 1.29 1.20 1.16 1.16 1.15 1.14
1.30 1.28 1.30 1.28 1.29 1.19 1.10 1.08 1.08 1.12 1.09 1.10 1.20 1.40 1.61 1.72 1.66 1.58 1.58 1.48 1.30 1.22 1.15 1.19 1.18 1.14 1.13 1.05 1.10 1.18 1.23 1.29 1.24 1.16 1.14 1.15 1.17 1.18 1.15 1.13 1.11 1.10 1.11 1.14
1.32 1.31 1.28 1.29 1.35 1.34 1.26 1.22 1.25 1.24 1.20 1.21 1.20 1.24 1.36 1.53 1.63 1.48 1.30 1.25 1.18 1.04 0.98 0.99 0.97 1.00 1.00 1.01 1.01 1.08 1.19 1.27 1.24 1.13 1.05 1.07 1.09 1.07 1.02 0.99 1.04 1.12 1.17 1.16
1.35 1.35 1.34 1.31 1.29 1.31 1.32 1.38 1.51 1.48 1.48 1.52 1.40 1.30 1.34 1.37 1.38 1.40 1.31 1.18 1.10 0.99 0.90 0.93 0.92 0.90 0.90 0.96 0.97 0.99 1.08 1.20 1.25 1.20 1.09 1.08 1.05 1.02 1.01 1.00 0.95 0.97 1.01 1.01
1.41 1.37 1.35 1.33 1.29 1.26 1.35 1.46 1.58 1.62 1.68 1.74 1.70 1.53 1.44 1.33 1.29 1.30 1.28 1.23 1.13 1.02 0.98 0.94 0.90 0.89 0.90 0.91 0.87 0.84 0.90 1.00 1.06 1.11 1.16 1.18 1.18 1.16 1.10 1.04 0.96 0.91 0.91 0.91